Regional Weather Roundup
Issued by NWS Little Rock, AR

Home | Current Version | Previous Version | Graphics & Text | Print | Product List | Glossary On
Versions: 1 2 3 4 5 6 7 8 9 10 11 12 13 14 15 16 17 18 19 20 21 22 23 24 25 26 27 28 29 30 31 32 33 34 35 36 37 38 39 40 41 42 43 44 45 46 47 48 49 50
000
ASUS44 KLZK 200505
RWRLZK

WEATHER ROUNDUP FOR ARKANSAS
NATIONAL WEATHER SERVICE LITTLE ROCK AR
1200 AM CDT SUN AUG 20 2017

NOTE: "FAIR" INDICATES FEW OR NO CLOUDS BELOW 12,000 FEET WITH NO
SIGNIFICANT WEATHER AND/OR OBSTRUCTIONS TO VISIBILITY.

ARZ001-003-010-029-200600-
NORTHWEST ARKANSAS

CITY           SKY/WX    TMP DP  RH WIND       PRES   REMARKS
FAYETTEVILLE   CLEAR     73  73 100 CALM      30.03R
FORT SMITH     PTCLDY    83  78  85 E3        29.97R HX  93
HARRISON       CLOUDY    78  75  90 SE5       30.04R
BENTONVILLE    CLOUDY    79  72  78 S3        30.03R
ROGERS         MOCLDY    78  74  87 SE6       30.03R
SILOAM SPGS    CLEAR     79  70  73 SE3       30.01R
HIGHFILL       CLEAR     77  74  90 S3        30.02R
$$

ARZ004-005-016-200600-
NORTH CENTRAL ARKANSAS

CITY           SKY/WX    TMP DP  RH WIND       PRES   REMARKS
BATESVILLE     CLOUDY    73  72  94 CALM      30.00F
FLIPPIN        MOCLDY    81  70  69 CALM      29.99S
MTN HOME       CLOUDY    78  74  87 S5        30.01S
$$

ARZ040-041-200600-
WEST CENTRAL ARKANSAS

CITY           SKY/WX    TMP DP  RH WIND       PRES   REMARKS
MENA           PTCLDY    82  82 100 CALM      30.02F HX  97
MOUNT IDA      CLEAR     79  76  90 CALM      29.98S
$$

ARZ009-017-025-026-028-200600-
NORTHEAST ARKANSAS

CITY           SKY/WX    TMP DP  RH WIND       PRES   REMARKS
CORNING        FAIR      77  77 100 SW3       29.98S
JONESBORO      PTCLDY    77  77 100 CALM      29.98S
NEWPORT        MOCLDY    76  74  93 SE5       29.99R
WALNUT RIDGE   CLOUDY    75  70  83 SW5       29.99S
BLYTHEVILLE    PTCLDY    77  75  93 S3        29.99R
$$

ARZ022-023-033-042-044-200600-
CENTRAL ARKANSAS

CITY           SKY/WX    TMP DP  RH WIND       PRES   REMARKS
LITTLE ROCK    PTCLDY    80  78  94 CALM      29.98S HX  88
N LITTLE ROCK    N/A     82  76  81 CALM      29.99R HX  89
JACKSONVILLE   CLEAR     79  79 100 CALM      29.98R
CONWAY           N/A     79  77  94 CALM      29.96S
SEARCY         CLEAR     75  74  96 CALM      30.00
HOT SPRINGS    CLEAR     82  79  90 CALM      29.99R HX  92
RUSSELLVILLE   CLEAR     78  77  96 CALM      29.97S
CLINTON        FAIR      75  75 100 CALM      30.00F
$$

ARZ036-200600-
EAST ARKANSAS

CITY           SKY/WX    TMP DP  RH WIND       PRES   REMARKS
WEST MEMPHIS   PTCLDY    80  79  96 CALM      29.97S HX  88
$$

ARZ050-053-066-070-073-200600-
SOUTHWEST ARKANSAS

CITY           SKY/WX    TMP DP  RH WIND       PRES   REMARKS
ARKADELPHIA    FAIR      78  78 100 CALM      29.98S
CAMDEN         CLEAR     79  75  89 CALM      29.97S
TEXARKANA      CLEAR     80  75  84 S5        29.98S HX  85
EL DORADO      CLEAR     80  76  87 S6        29.99F HX  86
DE QUEEN       CLEAR     79  79 100 CALM      29.96S FOG
$$

ARZ056-057-069-200600-
SOUTHEAST ARKANSAS

CITY           SKY/WX    TMP DP  RH WIND       PRES   REMARKS
PINE BLUFF     CLEAR     78  76  93 CALM      29.98R
MONTICELLO     CLEAR     81  73  76 SW6       29.99R HX  86

$$





USA.gov is the U.S. government's official web portal to all federal, state and local government web resources and services.